COSMOS 2300

Satellite information

Favourite Embed

Satellite Type and Status

PAYLOADIN ORBIT

Key statistics

Satellite COSMOS 2300 at a glance.

Uptime

11316

Days in orbit

Revolutions

≈ 12.6

Per day

Orbit

LEO

Low Earth Orbit

Inclination

82.6

Latest

Satellite identification and parameters

Extended collection of information and parameters for COSMOS 2300.

Object identification

Identified? True

Debris? False

Object name: COSMOS 2300

International designator: 1994-086B

Object number (NORAD): 23442

Object ID (CCSDS): 23442

Country: COMMONWEALTH OF INDEPENDENT STATES (CIS)

Current information (Y/N): Y

RCS size: LARGE

Orbital parameters

Period: 114.032 minutes

Inclination: 82.5635 deg

SMA: 7789.538 km

Apoapsis: 1412.353 km

Periapsis: 1410.452 km

RAAN: 59.2603 deg

Eccentricy: 0.00012199

Argument of periapsis: 292.9689 deg

Mean anomaly: 187.1846 deg

Mean motion: 12.62801926 rev/day

Mean motion (dot): 0.00000024 rev/day2

B* drag term: 0.00007623535 1/REarth

Two-line elements (TLE)

Creation date: Dec. 19, 2025, 2:08 a.m.

Reference frame: TEME

Reference center: EARTH

Epoch: Dec. 18, 2025, 5:17 p.m. UTC

TLE line 0: 0 COSMOS 2300

TLE line 1: 1 23442U 94086B 25352.72072818 .00000024 00000-0 76235-4 0 9997

TLE line 2: 2 23442 82.5635 59.2603 0001220 292.9689 187.1846 12.62801926427815

Live tracking on map

Real-time ground track for satellite COSMOS 2300.

In-orbit conjunctions

There are no conjunctions computed for COSMOS 2300, at the moment. Check back to stay up to date, as we update our databases every day.

Go to all conjunctions

Associated space launch

Second generation store-dump military communications satellites

COSMOS 2300 was lifted into orbit during the mission ‘Tsiklon-3 | Strela-3 107 to 112’, on board a Tsiklon-3 space rocket.

The launch took place on Dec. 26, 1994, 10:26 p.m. from 32/2.

For more information about the launch, click the button.

Launch to space Tsiklon-3 | Strela-3 107 to 112
Tsiklon-3 | Strela-3 107 to 112

Agency: N/A

Status: Launch Successful

Launch date: Dec. 26, 1994, 10:26 p.m. UTC

Rocket: Tsiklon-3

Launch pad: 32/2

Location: Plesetsk Cosmodrome, Russian Federation

...

Latest news about this satellite

There are no fresh news available about this satellite. Check back as we update our databases every day.


Newsletter sign-up

Weekly statistics, charts and insights to help you stay on top of the space industry.